This is the latest recevied weather packets stored in our database for station/object W0AKO. If no packets are shown the sender has not sent any weather packets the latest 10 day(s).
| Time | Temp. | Humidity | Pressure | Rain* | Wind** | Luminosity | Snow |
|---|---|---|---|---|---|---|---|
| 1777396191 | 16.11° C | 10% | 1020.9 hPa | 0 mm | - | 704 W/m² | - |
| 1777395887 | 17.22° C | 10% | 1020.9 hPa | 0 mm | - | 617 W/m² | - |
| 1777395582 | 16.67° C | 10% | 1020.6 hPa | 0 mm | - | 599 W/m² | - |
| 1777395279 | 16.11° C | 10% | 1020.7 hPa | 0 mm | - | 615 W/m² | - |
| 1777394977 | 16.11° C | 10% | 1020.9 hPa | 0 mm | - | 602 W/m² | - |
| 1777394673 | 16.11° C | 10% | 1020.8 hPa | 0 mm | - | 529 W/m² | - |
| 1777394369 | 16.67° C | 10% | 1021 hPa | 0 mm | - | 529 W/m² | - |
| 1777394066 | 16.11° C | 10% | 1021.3 hPa | 0 mm | - | 544 W/m² | - |
| 1777393761 | 16.11° C | 10% | 1021 hPa | 0 mm | - | 487 W/m² | - |
| 1777393455 | 15° C | 10% | 1020.8 hPa | 0 mm | - | 448 W/m² | - |
| 1777393151 | 15.56° C | 10% | 1021 hPa | 0 mm | - | 451 W/m² | - |
| 1777392848 | 15° C | 10% | 1021 hPa | 0 mm | - | 415 W/m² | - |
| 1777392543 | 15.56° C | 10% | 1020.9 hPa | 0 mm | - | 381 W/m² | - |
| 1777392239 | 15° C | 10% | 1020.8 hPa | 0 mm | - | 360 W/m² | - |
| 1777391934 | 15.56° C | 10% | 1021 hPa | 0 mm | - | 337 W/m² | - |
| 1777391629 | 13.89° C | 10% | 1020.9 hPa | 0 mm | - | 319 W/m² | - |
| 1777391326 | 13.89° C | 10% | 1020.7 hPa | 0 mm | - | 308 W/m² | - |
| 1777391023 | 13.33° C | 10% | 1020.8 hPa | 0 mm | - | 296 W/m² | - |
| 1777390719 | 13.89° C | 10% | 1020.8 hPa | 0 mm | - | 282 W/m² | - |
| 1777390416 | 13.33° C | 10% | 1020.9 hPa | 0 mm | - | 265 W/m² | - |
| 1777390112 | 13.33° C | 10% | 1020.9 hPa | 0 mm | - | 248 W/m² | - |
| 1777389809 | 13.33° C | 10% | 1020.7 hPa | 0 mm | - | 238 W/m² | - |
| 1777389506 | 12.78° C | 10% | 1020.7 hPa | 0 mm | - | 244 W/m² | - |
| 1777389202 | 12.22° C | 10% | 1020.9 hPa | 0 mm | - | 262 W/m² | - |
| 1777388901 | 12.22° C | 10% | 1020.7 hPa | 0 mm | - | 262 W/m² | - |
* Rain latest hour (hover to see other rain measurements)
** Current wind speed in m/s (hover to see current wind gust speed)